Starlink 1912

operational
NORAD ID: 47178 Int'l Des: 2020-088 Owner: SPXS Country: US Constellation: starlink
LEOCIRCULARSTARLINK_TYPE

About Starlink 1912

Description loading...

Live Position

Loading 3D Globe...

Upcoming Passes

Altitude History

Altitude vs Time

uPlot chart will show altitude changes over time

Two-Line Element Set

1 47178U 20088BJ 25350.28707462 .00001769 00000-0 13771-3 0 9991
2 47178 53.0554 316.0252 0001297 88.4317 271.6820 15.06381890279263
Epoch: Dec 16, 2025 • Age: 21 hours

Current Status

Altitude 548.3 km
Velocity 7.59 km/s
Sub-Earth Point 29.68°N, 42.5°W
Launch Date Nov 25, 2020
Age 5 years
Type internet

Technical Details

Classification Payload
Mass 260.00 kg
Dry Mass 248.00 kg
Total Mass 260.00 kg
Length 0.20 m
Diameter 2.80 m
Span 9.00 m
Shape Box + pan
Manufacturer SPXS
Bus Type Starlink
Phase Status In Orbit
Owner/State SPXS/US

Large Constellations

Loading constellations...